Location: Newark
(41.5333°N, 14.5500°E)
Time: 12:20:33
(UTC+00:00)

X-37B - Pass Details

Date: 14 March 2021
Orbit: 380 x 394 km, 45.0° (Epoch: 07 April)

Event Time Altitude Azimuth Distance (km) Brightness Sun altitude
Rises 17:56:51 0° 248° (WSW) 2,261 5.7 -10.1°
Reaches altitude 10° 17:58:54 10° 248° (WSW) 1,412 4.5 -10.5°
Maximum altitude 18:02:05 89° 176° (S) 393 0.5 -11.0°
Enters shadow 18:04:29 17° 70° (ENE) 1,095 2.3 -11.5°
